Regional Weather Roundup
Issued by NWS Lake Charles, LA

Home | Current Version | Previous Version | Text Only | Print | Product List | Glossary On
Versions: 1 2 3 4 5 6 7 8 9 10 11 12 13 14 15 16 17 18 19 20 21 22 23 24 25 26 27 28 29 30 31 32 33 34 35 36 37 38 39 40 41 42 43 44 45 46 47 48 49 50
000
ASUS44 KLCH 280310
RWRLCH
REGIONAL WEATHER ROUNDUP
NATIONAL WEATHER SERVICE LAKE CHARLES LA
1000 PM CDT SUN MAY 27 2018

Note: "fair" indicates few or no clouds below 12,000 feet with no
significant weather and/or obstructions to visibility.


ACROSS SOUTHEAST TEXAS

CITY           SKY/WX    TMP DP  RH WIND       PRES   REMARKS
BEAUMONT       FOG       76  73  91 CALM      29.81R VSB 1
BEAUMONT CITY  FAIR      75  71  88 CALM      29.83R
ORANGE         FAIR      73  73 100 CALM      29.84R FOG
JASPER         FAIR      74  74  97 CALM      29.86R FOG
$$

ACROSS CENTRAL LOUISIANA

CITY           SKY/WX    TMP DP  RH WIND       PRES   REMARKS
LEESVILLE      PTCLDY    76  68  77 CALM      29.87R
FULLERTON      FAIR      75  73  93 CALM      29.81R
ALEXANDRIA INT FAIR      79  68  69 NE5       29.81R
ESLER FIELD    FAIR      72  71  97 CALM      29.82S
DERIDDER       FAIR      76  75  95 CALM      29.84R
OAKDALE        FAIR      71  69  92 CALM      29.82R
OPELOUSAS      FAIR      78  69  73 CALM      29.82R
$$

ACROSS SOUTHWEST AND SOUTH CENTRAL LOUISIANA

CITY           SKY/WX    TMP DP  RH WIND       PRES   REMARKS
SULPHUR        FAIR      75  71  86 CALM      29.83R
LAKE CHARLES   FAIR      76  72  87 NW3       29.81R
CHENNAULT INT  CLEAR     77  73  88 CALM      29.82R
CAMERON PHI    CLEAR     77  75  94 CALM      29.82R
DEQUINCY       FAIR      73  72  95 CALM      29.83R
JENNINGS       FAIR      79  74  84 W5        29.81R
LAFAYETTE      FAIR      77  72  84 SW3       29.82R
NEW IBERIA     FAIR      76  70  82 W3        29.82R
ABBEVILLE      FAIR      74  73  98 CALM      29.82R
PATTERSON      FAIR      75  74  96 CALM      29.82R
SALT POINT       N/A    N/A N/A N/A CALM      29.79R
$$

SELECTED SITES ACROSS THE REGION

CITY           SKY/WX    TMP DP  RH WIND       PRES   REMARKS
HOUSTON BUSH   FAIR      78  73  84 SE3       29.81R
HOUSTON HOBBY  FAIR      79  75  87 S5        29.81R
GALVESTON      FAIR      81  75  82 CALM      29.82R
COLLEGE STAT   CLEAR     83  73  72 SE8       29.81R
CONROE         CLEAR     78  77  96 CALM      29.82R
HUNTSVILLE     MOCLDY    83  73  72 CALM      29.83R
LUFKIN         CLEAR     77  72  84 CALM      29.83R
SHREVEPORT     FAIR      79  69  71 E5        29.84R
MONROE         FAIR      74  71  91 NE3       29.85R
NATCHEZ MS     FAIR      75  73  93 CALM      29.85R
BATON ROUGE    FAIR      78  72  81 CALM      29.81R
N.O. INTL ARPT FAIR      79  72  79 SW3       29.80R
SLIDELL        FAIR      76  69  79 CALM      29.80R
$$

MARINE REPORTS

STATION/POSITION TIME  SKY/WX   TEMP    WIND        PRES    VSBY
                                AIR SEA DIR/SP/G
                 (UTC)          (F)     (DEG/KT/KT) (MB)    (MI)
BUOY 30 S HIGH I NOT AVBL
SEA RIM ST PARK  0300            78      10/  1/  1 1010.0R
PORT ARTHUR      0248            77 85   CALM  /  1 1009.8R
SABINE PASS N    0248            79 87   20/  3/  4 1011.1R
TEXAS POINT      NOT AVBL
CALCASIEU PASS   0248            78 85  330/  5/  5 1008.7R
LK CHARLES BEACH 0248            79 83              1009.2R
MARSH ISLAND     0200            76                   N/A
FRESH WATER LOCK 0248            74 86  280/  3/  4 1009.9R
AMERADA PASS     0248            79 82   CALM  /  2 1009.2R
$$



USA.gov is the U.S. government's official web portal to all federal, state and local government web resources and services.